Theta_e
347 346 349 352 350 348 349 349 350 350 349 347 346 344 343 344 347 347 350 365 363 364 366 362 359 357 355 356 358 360 358 359 356 354 354 354 355 356 357 356 355 355 357
344 344 349 350 351 349 348 347 347 348 346 346 344 343 342 344 348 347 346 354 363 364 364 364 361 358 356 356 356 359 358 358 357 358 358 358 357 356 357 357 356 357 357
349 346 348 349 351 351 350 348 348 349 346 348 345 343 340 343 350 348 347 351 355 362 364 365 363 362 360 359 358 359 359 359 358 358 360 359 358 357 356 358 358 359 358
354 349 348 349 350 351 349 348 348 345 345 344 343 339 339 341 344 349 350 351 351 355 361 363 363 363 363 362 362 362 362 360 359 358 357 358 359 358 357 356 357 358 358
353 352 350 350 348 349 349 347 348 345 343 343 342 342 341 339 341 345 349 352 349 353 354 360 363 363 364 362 364 365 365 363 361 360 360 359 358 358 358 357 358 358 356
352 351 351 348 349 348 347 346 344 343 342 342 344 342 339 338 339 340 342 347 349 352 351 352 358 359 363 364 364 363 364 362 361 361 361 360 359 357 357 357 357 357 357
351 349 350 349 348 347 347 345 343 339 341 342 337 335 335 337 336 337 338 340 344 349 351 350 352 353 354 361 361 362 363 364 363 361 361 359 359 359 358 357 356 356 354
350 351 348 347 346 346 345 346 343 339 339 341 336 332 327 331 335 338 337 338 337 341 348 350 350 351 352 351 356 361 362 363 363 363 361 359 358 358 357 357 356 355 355
351 351 349 348 347 347 345 345 344 340 335 337 337 330 324 323 326 333 336 339 339 337 340 346 350 351 350 349 353 357 360 358 361 362 361 359 357 355 356 356 356 354 354
353 351 349 348 346 348 346 345 346 344 338 333 334 338 331 330 326 323 332 336 337 337 337 339 346 351 352 351 354 357 356 355 358 361 362 361 359 357 356 356 356 355 354
352 352 350 349 346 346 346 343 345 342 343 337 335 335 334 331 332 328 323 329 338 339 339 336 334 341 348 351 352 353 356 355 356 357 359 360 360 359 358 357 358 358 356
351 351 351 349 348 345 346 346 346 345 343 342 339 339 335 332 333 331 327 328 332 336 340 340 339 343 342 346 352 357 356 355 351 350 352 355 358 357 358 358 359 358 360
345 349 351 350 348 346 345 347 347 346 344 342 339 340 341 339 337 337 332 329 330 334 337 340 342 345 346 344 344 352 357 352 349 345 344 347 351 351 353 355 356 357 358
346 349 350 351 350 349 346 347 346 346 347 344 341 340 340 341 340 341 336 333 328 330 334 336 338 341 344 345 345 347 345 346 347 345 344 344 345 347 348 349 350 350 351
347 348 348 350 351 351 350 347 347 347 347 347 345 343 343 343 343 343 343 340 336 329 328 332 335 342 343 342 346 345 344 345 346 344 340 339 339 340 341 342 342 342 342
347 348 346 347 349 349 350 349 348 348 348 349 349 347 346 347 345 346 345 343 340 337 332 334 336 339 344 346 347 346 345 344 345 343 340 338 338 338 338 339 339 339 340
347 348 347 346 345 347 348 348 344 345 345 346 348 348 346 348 346 345 345 342 341 340 336 339 338 340 340 343 345 347 347 346 346 342 341 339 336 336 336 337 337 339 340
344 347 345 346 345 341 337 340 342 341 337 339 342 346 346 347 345 346 345 343 343 342 339 336 337 338 341 342 343 342 344 347 345 344 340 338 336 334 333 333 333 333 332
343 344 345 345 338 335 336 332 332 334 334 333 332 337 344 344 344 346 345 343 343 342 341 340 338 338 341 341 341 341 342 343 345 346 341 338 335 333 332 330 329 327 325
340 340 343 342 338 335 335 332 333 333 333 332 333 333 338 344 345 346 345 344 343 341 340 340 340 340 337 340 339 338 337 340 342 347 344 340 338 337 334 331 330 329 323
340 341 340 341 340 337 337 331 331 329 331 329 332 333 335 344 344 345 347 345 343 341 340 339 339 337 337 335 336 337 337 337 339 341 339 340 340 337 337 334 336 334 327
337 340 339 340 340 339 331 331 332 328 329 330 331 332 338 339 338 337 337 339 344 342 341 340 340 339 340 335 335 335 333 332 330 337 339 342 339 338 338 336 336 331 326
338 338 338 338 340 339 327 324 328 329 329 330 331 333 334 337 332 335 333 333 334 335 340 344 341 341 340 338 335 332 333 332 331 335 337 334 339 337 339 340 331 328 325
330 333 334 333 338 340 326 323 326 332 333 333 334 333 333 333 333 333 332 335 338 340 341 343 345 344 343 340 340 336 335 334 333 336 337 330 336 335 336 337 333 329 325
327 328 331 332 331 334 323 322 324 333 334 334 333 333 332 330 326 324 333 334 336 340 332 328 330 330 329 328 335 337 334 332 329 331 338 334 333 334 333 334 336 328 324
329 331 332 332 327 332 316 315 323 333 332 333 334 336 329 332 324 321 333 336 334 338 339 336 333 329 330 331 327 339 336 331 329 328 334 331 330 332 328 331 333 331 328
Wind_Speed
5 4 4 4 4 4 4 3 3 4 4 4 5 5 6 5 7 4 5 18 18 17 16 16 15 15 14 13 13 14 14 15 14 13 12 13 11 11 13 13 12 13 12
5 4 3 4 4 5 4 4 4 4 4 3 5 5 5 5 5 5 5 8 17 15 17 17 17 17 16 16 15 15 16 16 14 14 14 14 12 12 12 14 14 13 13
5 7 5 4 5 4 5 4 4 4 4 4 5 5 4 4 4 8 5 4 7 16 17 18 17 17 17 17 17 17 17 17 16 15 15 16 14 14 13 14 14 15 14
8 6 7 7 6 4 5 4 5 4 4 4 3 4 4 4 5 6 6 5 5 7 13 17 18 18 19 19 20 20 19 18 17 16 16 16 16 15 15 15 15 15 14
8 8 6 6 6 6 6 7 5 5 4 4 5 5 4 4 5 5 7 8 9 8 6 15 18 19 21 22 20 19 19 19 18 18 17 17 17 17 17 16 16 16 16
10 9 7 5 6 6 5 4 5 4 4 5 5 4 4 5 5 5 6 6 8 9 7 7 8 11 20 20 19 21 21 20 20 19 19 18 18 17 17 17 17 17 17
11 11 8 7 6 8 9 8 6 6 8 4 2 3 4 5 6 6 5 4 5 7 7 6 6 6 8 21 20 20 21 20 20 20 20 19 19 18 18 18 17 17 17
12 11 10 8 8 6 7 8 8 3 5 5 4 1 2 4 4 8 5 6 7 5 7 8 9 10 9 6 14 21 21 21 21 20 21 20 20 19 19 18 18 17 18
12 14 13 10 9 9 8 9 9 9 5 3 6 5 2 5 1 3 7 7 7 5 7 7 9 11 10 8 10 13 21 21 22 22 21 20 19 18 20 19 19 18 17
13 14 14 14 12 9 10 10 10 10 6 6 1 6 1 5 4 3 2 3 5 7 6 4 5 8 9 8 13 14 14 18 20 22 20 20 19 19 19 18 18 18 17
13 15 15 14 12 10 11 11 8 9 10 6 6 3 4 3 3 3 4 4 2 4 5 5 5 5 6 7 7 8 17 14 19 20 19 20 18 19 19 18 18 19 18
9 14 15 14 14 13 13 11 12 12 11 9 5 5 5 5 5 4 3 5 4 4 3 4 5 5 6 5 7 12 11 13 11 11 14 16 19 19 19 17 15 15 14
7 12 15 15 13 15 14 13 12 12 11 10 9 9 6 5 4 4 4 3 5 3 3 3 4 4 4 6 8 14 11 11 9 12 13 14 16 13 9 9 10 11 13
10 12 13 16 19 17 15 15 11 12 11 10 11 10 7 8 5 6 5 5 3 3 3 5 3 4 5 6 9 10 6 11 11 10 9 7 9 10 10 10 10 11 12
11 11 12 14 16 17 19 18 13 14 13 11 12 11 10 10 8 6 6 6 7 6 5 3 4 5 5 3 8 6 6 9 10 10 10 10 10 9 10 9 9 10 11
11 13 12 12 17 16 17 17 15 14 13 11 11 12 12 9 8 7 7 7 6 8 8 4 5 4 3 3 6 6 6 9 9 11 11 10 8 9 8 8 9 11 11
11 11 11 12 14 17 17 14 7 7 12 14 13 13 14 13 9 8 7 6 7 7 9 7 4 5 4 4 5 4 5 5 5 10 9 8 9 9 8 8 8 9 9
9 9 9 8 7 3 10 5 10 16 4 2 5 12 13 8 11 10 8 10 9 8 8 10 5 4 6 4 5 4 4 4 5 7 10 8 9 10 10 10 9 10 9
8 9 9 10 6 12 12 11 16 4 3 1 5 9 13 10 11 9 10 9 8 7 7 7 7 3 4 3 4 4 4 5 4 7 8 10 11 10 10 10 10 10 10
10 10 10 9 10 14 11 13 17 17 15 13 22 12 14 12 13 12 10 11 8 8 6 7 7 6 4 3 3 4 4 4 5 4 6 7 7 9 11 10 11 12 11
11 12 11 8 11 14 11 13 12 14 21 21 20 17 15 16 16 15 9 10 9 9 7 7 7 4 4 3 5 3 4 3 4 4 3 4 5 4 6 9 10 12 12
12 11 11 10 13 11 17 21 16 10 11 13 14 11 10 7 10 15 17 14 14 12 11 9 8 8 9 4 4 4 4 3 4 3 4 5 4 4 6 5 11 13 13
11 11 10 9 13 15 18 19 18 11 10 9 8 5 6 7 8 7 10 13 16 16 15 11 9 10 8 8 5 4 5 4 4 3 3 3 3 4 5 6 12 14 14
7 7 7 7 8 10 15 17 19 14 10 8 6 7 8 10 11 12 7 9 10 11 13 10 11 8 10 6 9 6 6 4 2 4 4 4 2 4 3 5 11 14 15
4 4 4 5 6 6 12 17 16 11 10 10 7 7 8 7 9 12 11 13 13 10 9 14 10 8 10 10 8 5 4 3 3 3 3 4 3 3 2 4 5 11 13
5 2 2 0 3 4 4 5 12 6 9 8 10 11 13 15 12 16 15 14 12 11 8 6 4 3 5 7 10 7 5 4 4 2 3 4 1 1 3 2 1 1 3
Wind_Direction
185 191 189 184 192 171 177 198 221 226 235 246 257 231 244 196 169 175 179 193 201 204 200 202 204 201 207 210 214 211 210 210 218 219 223 228 233 236 224 225 231 236 237
181 173 183 195 209 183 168 187 206 222 244 249 261 242 218 220 196 175 200 201 206 206 200 201 207 207 208 213 218 219 221 223 226 224 225 230 233 237 233 226 234 241 242
169 177 189 190 211 183 164 199 220 230 248 276 255 249 215 202 188 187 193 193 211 211 207 208 209 209 212 216 219 222 225 226 225 224 226 229 230 235 237 236 238 239 244
197 189 192 196 200 180 187 196 211 217 226 225 244 258 257 187 214 198 201 192 206 209 215 214 217 214 214 218 222 221 224 228 230 228 227 232 229 230 235 236 242 242 246
195 194 199 206 179 202 203 201 204 198 206 222 230 240 258 256 192 220 216 208 212 217 205 215 216 218 221 223 226 228 228 227 228 229 230 232 233 234 238 239 241 243 240
198 202 208 206 188 199 200 187 193 196 204 213 229 236 246 252 258 216 208 219 210 222 214 201 209 225 227 230 231 234 233 230 227 228 229 232 235 236 237 241 241 242 240
201 202 208 205 191 202 207 201 200 201 222 206 152 298 282 262 265 256 246 229 223 223 205 201 201 213 229 231 233 234 234 235 230 229 228 229 231 235 237 237 240 243 247
203 198 203 204 201 202 212 208 195 179 220 174 171 120 283 313 275 243 247 245 244 218 229 217 211 218 223 225 227 229 232 235 240 235 229 228 230 231 235 238 237 240 246
207 206 203 205 202 203 210 214 210 206 205 216 200 150 155 225 289 255 240 234 235 222 224 227 218 225 223 223 230 231 231 232 238 241 238 234 229 230 231 230 232 236 236
207 209 211 207 204 201 206 207 213 213 199 214 205 232 216 148 191 310 308 262 240 235 223 218 221 227 231 230 232 230 234 233 237 240 240 236 231 232 230 230 232 237 236
209 208 209 212 214 212 210 196 193 198 207 192 191 164 205 204 174 158 272 303 306 247 225 215 221 234 235 229 234 228 224 223 227 233 238 249 246 234 228 229 227 231 233
215 216 211 211 215 218 216 208 204 206 208 216 193 187 179 179 204 175 201 237 236 279 254 225 221 217 231 234 238 232 228 225 220 236 238 247 255 253 248 247 249 252 247
223 223 213 212 217 216 218 218 215 215 211 206 200 214 218 210 174 178 180 225 229 259 269 255 244 229 220 220 228 240 227 242 238 238 238 242 245 260 256 250 250 257 259
235 240 214 216 221 216 211 212 215 217 213 214 207 211 211 226 204 200 179 164 261 250 250 235 252 244 240 236 236 213 232 244 251 262 258 249 230 235 241 240 244 249 252
241 232 226 220 225 225 216 213 215 209 211 204 213 213 211 224 228 217 208 197 222 248 259 240 242 239 242 248 247 233 226 235 234 231 224 223 228 234 242 246 248 256 256
237 247 250 241 233 229 226 219 211 220 207 207 210 209 209 211 217 209 215 210 198 223 252 182 230 244 236 250 258 232 231 232 228 221 227 230 235 244 236 246 254 259 252
232 230 239 249 248 236 236 220 220 223 230 215 210 210 211 207 204 217 205 210 215 206 233 258 232 226 253 250 276 259 234 216 223 236 240 234 236 235 230 240 254 257 244
229 231 239 250 253 97 57 322 255 249 287 354 249 224 222 211 212 207 212 212 221 210 211 236 226 229 221 219 239 259 242 226 208 231 236 237 244 236 232 236 238 246 242
238 232 237 235 193 148 151 145 131 265 199 258 266 279 249 209 219 211 215 210 214 218 213 229 245 202 240 208 255 239 241 226 221 227 226 231 221 228 236 234 235 238 243
258 242 231 226 176 176 177 170 157 160 169 229 246 218 248 236 227 217 210 215 205 208 203 221 242 247 210 244 215 243 262 214 234 215 222 212 222 234 241 237 235 231 238
261 245 238 205 186 183 184 189 184 192 202 210 219 218 224 228 223 218 210 218 205 210 205 212 224 226 214 215 220 210 239 247 256 208 221 227 220 209 251 239 245 235 229
258 243 232 205 194 199 199 205 201 211 212 214 217 216 217 195 218 214 220 214 203 203 213 202 219 223 231 213 183 195 201 184 245 214 189 248 168 229 238 226 233 229 221
280 241 237 217 203 205 205 204 205 209 203 205 202 185 190 217 210 227 219 227 233 218 212 201 211 212 220 212 195 177 191 189 201 244 164 251 188 228 226 243 240 237 229
262 244 225 208 199 207 203 210 220 227 231 235 221 192 207 220 224 225 217 226 223 224 223 221 219 211 212 202 196 188 192 187 247 247 162 222 185 241 228 236 245 245 231
272 266 232 207 193 212 213 206 199 205 208 210 215 217 208 215 205 207 224 239 235 220 205 210 209 201 201 187 177 141 180 166 244 254 197 179 212 240 236 253 238 245 244
252 271 95 160 165 188 178 198 180 190 206 215 227 238 231 239 227 207 216 214 219 215 191 159 190 192 185 204 207 196 164 177 190 253 236 172 131 171 307 261 270 267 279